When you browse on this site, cookies collect data to enhance your experience and personalize the content and advertising you see.
Visit our Privacy Policy to learn more. By continuing to use the site, you agree to this use of cookies and data.
  • In Lithuania
  • List of Countries
  • For 7 days
  • Water Temperature
  • Satellite Maps
  • Weather Map
  • Weather Widgets
  • user-avatar
    Login

    Hourly Weather Mnikow

    Today, 10 December, Monday

    Time Temperature Precipitation Wind Pressure Humidity
    00:00 +3°C° 0.1 mm 6 mps 731 mmHg 80%
    01:00 +3°C° 0.1 mm 6 mps 732 mmHg 79%
    02:00 +3°C° 0.1 mm 6 mps 732 mmHg 78%
    03:00 +3°C° 0.1 mm 7 mps 733 mmHg 77%
    04:00 +2°C° 0.1 mm 7 mps 733 mmHg 75%
    05:00 +2°C° 0.1 mm 7 mps 734 mmHg 75%
    06:00 +2°C° 0.1 mm 7 mps 734 mmHg 74%
    07:00 +1°C° 0.1 mm 8 mps 735 mmHg 73%
    08:00 +1°C° 0.1 mm 8 mps 735 mmHg 73%
    09:00 +1°C° 0.1 mm 8 mps 736 mmHg 72%
    10:00 +1°C° 0.1 mm 8 mps 737 mmHg 71%
    11:00 +1°C° 0.1 mm 8 mps 737 mmHg 69%
    12:00 +1°C° 0.1 mm 8 mps 737 mmHg 68%
    13:00 +1°C° 0.1 mm 8 mps 737 mmHg 66%
    14:00 +2°C° 0.1 mm 7 mps 738 mmHg 69%
    15:00 +1°C° 0.1 mm 6 mps 738 mmHg 71%
    16:00 +1°C° 0.1 mm 5 mps 738 mmHg 73%
    17:00 0°C° 0 mm 5 mps 738 mmHg 75%
    18:00 0°C° 0 mm 5 mps 738 mmHg 76%
    19:00 0°C° 0 mm 5 mps 738 mmHg 77%
    20:00 -1°C° 0 mm 5 mps 738 mmHg 78%
    21:00 -1°C° 0 mm 5 mps 738 mmHg 79%
    22:00 -1°C° 0 mm 5 mps 738 mmHg 80%
    23:00 -1°C° 0.1 mm 4 mps 738 mmHg 81%

    Tomorrow, 11 December, Tuesday

    Time Temperature Precipitation Wind Pressure Humidity
    00:00 -1°C° 0.1 mm 4 mps 738 mmHg 82%
    01:00 -1°C° 0.1 mm 4 mps 738 mmHg 83%
    02:00 -1°C° 0.1 mm 4 mps 738 mmHg 84%
    03:00 -1°C° 0.1 mm 4 mps 738 mmHg 84%
    04:00 -1°C° 0.1 mm 4 mps 738 mmHg 85%
    05:00 0°C° 0.2 mm 4 mps 737 mmHg 84%
    06:00 0°C° 0.2 mm 4 mps 737 mmHg 84%
    07:00 0°C° 0.2 mm 5 mps 737 mmHg 83%
    08:00 0°C° 0.2 mm 5 mps 737 mmHg 83%
    09:00 0°C° 0.2 mm 5 mps 737 mmHg 82%
    10:00 +1°C° 0.2 mm 5 mps 737 mmHg 81%
    11:00 +1°C° 0.3 mm 5 mps 737 mmHg 82%
    12:00 +1°C° 0.3 mm 5 mps 737 mmHg 82%
    13:00 +1°C° 0.3 mm 5 mps 737 mmHg 83%
    14:00 0°C° 0.2 mm 5 mps 737 mmHg 84%
    15:00 0°C° 0.2 mm 4 mps 738 mmHg 86%
    16:00 0°C° 0.2 mm 4 mps 738 mmHg 88%
    17:00 -1°C° 0.3 mm 4 mps 738 mmHg 88%
    18:00 -1°C° 0.3 mm 4 mps 739 mmHg 89%
    19:00 -1°C° 0.3 mm 5 mps 739 mmHg 90%
    20:00 -1°C° 0.3 mm 4 mps 739 mmHg 91%
    21:00 -1°C° 0.3 mm 4 mps 740 mmHg 92%
    22:00 -1°C° 0.3 mm 4 mps 740 mmHg 93%
    23:00 -1°C° 0.3 mm 4 mps 741 mmHg 94%

    Day after tomorrow, 12 December, Wednesday

    Time Temperature Precipitation Wind Pressure Humidity
    00:00 -1°C° 0.3 mm 4 mps 741 mmHg 94%
    01:00 -1°C° 0.3 mm 4 mps 741 mmHg 95%
    02:00 -1°C° 0.4 mm 4 mps 742 mmHg 94%
    03:00 -1°C° 0.4 mm 4 mps 742 mmHg 94%
    04:00 -1°C° 0.4 mm 4 mps 742 mmHg 94%
    05:00 -1°C° 0.2 mm 4 mps 743 mmHg 94%
    06:00 -2°C° 0.2 mm 4 mps 743 mmHg 94%
    07:00 -2°C° 0.2 mm 4 mps 744 mmHg 94%
    08:00 -2°C° 0.2 mm 4 mps 744 mmHg 94%
    09:00 -2°C° 0.2 mm 4 mps 744 mmHg 93%
    10:00 -1°C° 0.2 mm 3 mps 745 mmHg 93%
    11:00 0°C° 0.1 mm 3 mps 745 mmHg 93%
    12:00 0°C° 0.1 mm 3 mps 745 mmHg 92%
    13:00 0°C° 0.1 mm 3 mps 745 mmHg 92%
    14:00 +1°C° 0 mm 2 mps 745 mmHg 92%
    15:00 -1°C° 0 mm 2 mps 745 mmHg 92%
    16:00 +1°C° 0 mm 1 mps 745 mmHg 92%
    17:00 +1°C° 0 mm 1 mps 745 mmHg 93%
    18:00 0°C° 0 mm 1 mps 745 mmHg 93%
    19:00 0°C° 0 mm 1 mps 746 mmHg 93%
    20:00 0°C° 0 mm 1 mps 746 mmHg 93%
    21:00 -1°C° 0 mm 1 mps 746 mmHg 93%
    22:00 -1°C° 0 mm 1 mps 746 mmHg 93%
    23:00 -2°C° 0 mm 1 mps 746 mmHg 92%

    13 December, Thursday

    Time Temperature Precipitation Wind Pressure Humidity
    00:00 -2°C° 0 mm 1 mps 746 mmHg 92%
    01:00 -2°C° 0 mm 1 mps 746 mmHg 92%
    02:00 -2°C° 0 mm 1 mps 746 mmHg 92%
    03:00 -2°C° 0 mm 1 mps 746 mmHg 91%
    04:00 -4°C° 0 mm 0 mps 746 mmHg 91%
    05:00 -3°C° 0 mm 0 mps 746 mmHg 91%
    06:00 -3°C° 0 mm 0 mps 746 mmHg 90%
    07:00 -3°C° 0 mm 0 mps 746 mmHg 90%
    08:00 -3°C° 0 mm 0 mps 746 mmHg 89%
    09:00 -2°C° 0 mm 0 mps 746 mmHg 88%
    10:00 -1°C° 0 mm 0 mps 746 mmHg 86%
    11:00 0°C° 0 mm 1 mps 746 mmHg 85%
    12:00 +1°C° 0 mm 1 mps 745 mmHg 83%
    13:00 +1°C° 0 mm 1 mps 745 mmHg 82%
    14:00 0°C° 0 mm 1 mps 745 mmHg 84%
    15:00 -1°C° 0 mm 1 mps 745 mmHg 87%
    16:00 -1°C° 0 mm 1 mps 745 mmHg 90%
    17:00 -2°C° 0 mm 1 mps 745 mmHg 90%
    18:00 -2°C° 0 mm 1 mps 745 mmHg 91%
    19:00 -2°C° 0 mm 1 mps 744 mmHg 91%
    20:00 -2°C° 0 mm 1 mps 744 mmHg 91%
    21:00 -2°C° 0 mm 1 mps 744 mmHg 92%
    22:00 -3°C° 0 mm 1 mps 744 mmHg 92%
    23:00 -3°C° 0 mm 1 mps 744 mmHg 91%

    14 December, Friday

    Time Temperature Precipitation Wind Pressure Humidity
    00:00 -3°C° 0 mm 1 mps 744 mmHg 91%
    01:00 -3°C° 0 mm 1 mps 744 mmHg 91%
    02:00 -3°C° 0 mm 1 mps 744 mmHg 91%
    03:00 -3°C° 0 mm 1 mps 744 mmHg 90%
    04:00 -3°C° 0 mm 1 mps 744 mmHg 90%
    05:00 -3°C° 0 mm 1 mps 744 mmHg 90%
    06:00 -4°C° 0 mm 1 mps 744 mmHg 89%
    07:00 -4°C° 0 mm 1 mps 744 mmHg 89%
    08:00 -3°C° 0 mm 1 mps 745 mmHg 87%
    09:00 -2°C° 0 mm 1 mps 745 mmHg 86%
    10:00 -1°C° 0 mm 1 mps 745 mmHg 84%
    11:00 -1°C° 0 mm 1 mps 745 mmHg 83%
    12:00 0°C° 0 mm 1 mps 745 mmHg 81%
    13:00 +1°C° 0 mm 1 mps 744 mmHg 80%
    14:00 0°C° 0 mm 1 mps 744 mmHg 83%
    15:00 -1°C° 0 mm 1 mps 744 mmHg 86%
    16:00 -2°C° 0 mm 1 mps 744 mmHg 89%
    17:00 -2°C° 0 mm 1 mps 744 mmHg 89%
    18:00 -5°C° 0 mm 2 mps 744 mmHg 90%
    19:00 -5°C° 0 mm 2 mps 744 mmHg 90%
    20:00 -5°C° 0 mm 2 mps 744 mmHg 89%
    21:00 -3°C° 0 mm 1 mps 744 mmHg 89%
    22:00 -3°C° 0 mm 1 mps 744 mmHg 89%
    23:00 -3°C° 0 mm 1 mps 744 mmHg 88%

    15 December, Saturday

    Time Temperature Precipitation Wind Pressure Humidity
    00:00 -3°C° 0 mm 1 mps 744 mmHg 88%
    01:00 -3°C° 0 mm 1 mps 744 mmHg 88%
    02:00 -3°C° 0 mm 1 mps 744 mmHg 89%
    03:00 -3°C° 0 mm 1 mps 744 mmHg 89%
    04:00 -3°C° 0 mm 1 mps 744 mmHg 89%
    05:00 -3°C° 0 mm 1 mps 745 mmHg 89%
    06:00 -3°C° 0 mm 1 mps 745 mmHg 89%
    07:00 -3°C° 0 mm 1 mps 745 mmHg 89%
    08:00 -3°C° 0 mm 1 mps 746 mmHg 88%
    09:00 -2°C° 0 mm 1 mps 746 mmHg 87%
    10:00 -2°C° 0 mm 1 mps 747 mmHg 86%
    11:00 -1°C° 0 mm 1 mps 747 mmHg 85%
    12:00 0°C° 0 mm 1 mps 747 mmHg 83%
    13:00 0°C° 0 mm 1 mps 747 mmHg 82%
    14:00 0°C° 0 mm 1 mps 748 mmHg 84%
    15:00 -1°C° 0 mm 1 mps 748 mmHg 86%
    16:00 -2°C° 0 mm 1 mps 749 mmHg 88%
    17:00 -2°C° 0 mm 1 mps 749 mmHg 88%
    18:00 -2°C° 0 mm 1 mps 749 mmHg 87%
    19:00 -2°C° 0 mm 1 mps 750 mmHg 87%
    20:00 -3°C° 0 mm 1 mps 750 mmHg 87%
    21:00 -3°C° 0 mm 1 mps 750 mmHg 87%
    22:00 -3°C° 0 mm 1 mps 751 mmHg 87%
    23:00 -3°C° 0 mm 1 mps 751 mmHg 87%
    Show more